Notices

What's New in latest Release from April 7th, 2021:

- Updated Glossary, including Speed of Maximum Gust, and Total Hourly Precipitation

- Updated national and regional climate services offices contacts and prices information

- Addition of station inventory lists for 1981-2010, 1971-2000, and 1961-1990 Normals.

If you haven't already, please take our survey and provide feedback about our website: https://eccc.sondage-survey.ca/f/LanguageSelection.aspx?s=442ca660-fcf1-47c0-95a9-59707d6fd709

Hourly Data Report for December 13, 2019

SAINT JOHN A
NEW BRUNSWICK
Current Station Operator: NAVCAN

45°18'58.000" N
65°53'24.000" W
108.80 m
8104901
71609
YSJ

Download Data

Hourly Data (December 2019)
Hourly Data Report for December 13, 2019
TIME
LST
Temp Definition
°C
Dew Point Definition
°C
Rel Hum Definition
%
Precip. Amount Definition
mm

Wind Dir Definition
10's deg

Wind Spd Definition
km/h
Visibility Definition
km
Stn Press Definition
kPa
Hmdx Definition


Wind Chill Definition


Weather Definition


00:00 -11.5 -12.7 90   36 3 24.1 102.56   -13 LegendNANA
01:00 -12.6 -13.9 90   1 4 24.1 102.53   -15 LegendNANA
02:00 -13.2 -14.6 89   2 8 24.1 102.47   -18 Mainly Clear
03:00 -11.8 -13.2 89   2 4 24.1 102.51   -14 LegendNANA
04:00 -12.2 -13.9 88   8 4 24.1 102.50   -15 LegendNANA
05:00 -12.1 -14.2 84   5 5 24.1 102.53   -15 Mostly Cloudy
06:00 -12.2 -14.3 84   7 8 24.1 102.52   -17 LegendNANA
07:00 -13.3 -14.7 89   36 1 24.1 102.50   -14 LegendNANA
08:00 -10.6 -13.8 77   1 3 24.1 102.46   -12 Mostly Cloudy
09:00 -6.9 -11.3 71   25 9 24.1 102.44   -11 LegendNANA
10:00 -3.6 -7.9 72   15 16 24.1 102.35   -9 LegendNANA
11:00 -2.0 -7.4 67   16 23 24.1 102.29   -8 Cloudy
12:00 -0.5 -5.2 70   16 28 24.1 102.13   -7 LegendNANA
13:00 0.8 -3.5 73   18 28 24.1 102.05     LegendNANA
14:00 1.0 -3.1 74   18 26 24.1 101.99     Cloudy
15:00 1.2 -2.1 79   17 24 24.1 101.96     LegendNANA
16:00 1.8 -1.8 77   18 23 24.1 101.94     LegendNANA
17:00 1.8 -1.5 79   18 25 24.1 101.86     Cloudy
18:00 1.8 -1.4 79   17 26 24.1 101.82     LegendNANA
19:00 1.8 -0.7 84   17 24 16.1 101.86     Snow Showers
20:00 1.9 -0.6 84   16 25 19.3 101.79     Cloudy
21:00 2.3 -0.2 83   16 27 24.1 101.79     LegendNANA
22:00 2.7 0.6 86   16 20 24.1 101.73     LegendNANA
23:00 2.8 1.0 88   15 21 24.1 101.60     Cloudy

Notes on Data Quality.

Legend

  • E = Estimated
  • M = Missing
  • NA = Not Available*
  • [empty] = Indicates an unobserved value
Date modified: